GSAT0212 (GALILEO 16) (41860 NORAD) Tracking and Keplerian Element Data

This shows tracking and keplerian element data for the satellite.

Feedback or suggestion? Click here.




ElementValue
Catalog41860
NameGSAT0212 (GALILEO 16)
Epoch Orbit1244
Epoch Day320.92364618
Epoch Year2018
RAAN177.9251
Inclination54.5829
Eccentricity0.0002683
Argument of Perigee343.1296
Mean Anonmoly16.9544
Mean Motion1.70473321
Decay Rate6.2E-07
L11 41860U 16069B 18320.92364618 .00000062 00000-0 00000-0 0 9992
L22 41860 54.5829 177.9251 0002683 343.1296 16.9544 1.70473321 12441

Live tracking and technical data element details for GSAT0212 (GALILEO 16) (NORAD 41860). GSAT0212 (GALILEO 16) can be tracked NOW for your location showing map with azimuth and elevation plus other details from your city location.

Track the satellite on the map from your city or location and see movement details for azimuth, elevation, latitude, longitude, range, height, and movement on the map or in text.







IsCatalogInMostPopularTable: catalog: 41860, numindb: 136
Update: records affected: 1



GetName: 41860 GSAT0212 (GALILEO 16)

Hit Count: updated at: Mon, 19 Nov 2018 11:00:04 GMT